Location: Fort Worth, Tx
(32.7431°N, 97.3695°W)
Time: 11:58:45
(UTC-04:00)

Tiros 1 - Pass Details

Date: 23 February 2024
Orbit: 625 x 657 km, 48.4° (Epoch: 24 April)

Event Time Altitude Azimuth Distance (km) Brightness Sun altitude
Exits shadow 05:21:05 19° 108° (ESE) 1,509 9.5 -35.0°
Drops below altitude 10° 05:22:30 10° 113° (ESE) 2,025 10.3 -34.7°
Sets 05:24:51 0° 118° (ESE) 2,925 11.2 -34.2°
